| time (UTC) | temp F | wind direction | speed MPH | gust MPH | rain 1hr in | rain 24hr in | rain mn in | humidity % | barometer mb |
| 20260510010032 | 57 | 163 | 8.0 | 17.0 | 0.00 | 0.00 | 0.00 | 75 | 1003.0 |
| 20260510004532 | 58 | 154 | 7.0 | 12.0 | 0.00 | 0.00 | 0.00 | 74 | 1002.9 |
| 20260510003044 | 58 | 157 | 3.0 | 11.0 | 0.00 | 0.00 | 0.00 | 72 | 1002.8 |
| 20260510001530 | 58 | 167 | 0.0 | 10.0 | 0.00 | 0.00 | 0.00 | 71 | 1002.8 |
| 20260510000029 | 59 | 154 | 4.0 | 10.0 | 0.00 | 0.00 | 0.00 | 71 | 1003.0 |
| 20260509234529 | 59 | 163 | 0.0 | 5.0 | 0.00 | 0.00 | 0.00 | 70 | 1003.3 |
| 20260509233030 | 59 | 180 | 0.0 | 9.0 | 0.00 | 0.00 | 0.00 | 69 | 1003.4 |
| 20260509231515 | 59 | 185 | 4.0 | 12.0 | 0.00 | 0.00 | 0.00 | 68 | 1003.5 |
| 20260509230015 | 59 | 165 | 5.0 | 13.0 | 0.00 | 0.00 | 0.00 | 68 | 1003.5 |
| 20260509224516 | 60 | 173 | 0.0 | 16.0 | 0.00 | 0.00 | 0.00 | 69 | 1003.5 |
| 20260509223005 | 60 | 188 | 6.0 | 17.0 | 0.00 | 0.00 | 0.00 | 67 | 1003.4 |
| 20260509221504 | 59 | 167 | 3.0 | 15.0 | 0.00 | 0.00 | 0.00 | 68 | 1003.4 |
| 20260509220005 | 59 | 190 | 9.0 | 16.0 | 0.00 | 0.00 | 0.00 | 67 | 1003.4 |
| 20260509214501 | 60 | 194 | 10.0 | 18.0 | 0.00 | 0.00 | 0.00 | 65 | 1003.7 |
| 20260509213101 | 60 | 190 | 16.0 | 22.0 | 0.00 | 0.00 | 0.00 | 64 | 1003.7 |
| 20260509211603 | 60 | 177 | 12.0 | 22.0 | 0.00 | 0.00 | 0.00 | 64 | 1003.6 |
| 20260509210110 | 61 | 200 | 0.0 | 19.0 | 0.00 | 0.00 | 0.00 | 62 | 1003.6 |
| 20260509204558 | 61 | 192 | 8.0 | 20.0 | 0.00 | 0.00 | 0.00 | 60 | 1003.9 |
| 20260509203058 | 62 | 176 | 15.0 | 26.0 | 0.00 | 0.00 | 0.00 | 60 | 1003.6 |
| 20260509201600 | 62 | 145 | 11.0 | 24.0 | 0.00 | 0.00 | 0.00 | 55 | 1003.5 |
| 20260509194551 | 64 | 227 | 2.0 | 17.0 | 0.00 | 0.00 | 0.00 | 48 | 1003.8 |
| 20260509193054 | 63 | 210 | 0.0 | 16.0 | 0.00 | 0.00 | 0.00 | 47 | 1003.8 |
| 20260509191544 | 62 | 194 | 7.0 | 21.0 | 0.00 | 0.00 | 0.00 | 52 | 1004.2 |
| 20260509190127 | 62 | 193 | 8.0 | 18.0 | 0.00 | 0.00 | 0.00 | 51 | 1004.6 |
| 20260509184537 | 62 | 193 | 5.0 | 13.0 | 0.00 | 0.00 | 0.00 | 51 | 1004.7 |
| 20260509183032 | 63 | 209 | 1.0 | 18.0 | 0.00 | 0.00 | 0.00 | 49 | 1004.8 |
| 20260509181522 | 62 | 173 | 3.0 | 18.0 | 0.00 | 0.00 | 0.00 | 48 | 1004.7 |
| 20260509180021 | 62 | 184 | 8.0 | 16.0 | 0.00 | 0.00 | 0.00 | 47 | 1004.9 |
| 20260509174518 | 61 | 187 | 3.0 | 12.0 | 0.00 | 0.00 | 0.00 | 51 | 1005.1 |
| 20260509173024 | 61 | 153 | 7.0 | 14.0 | 0.00 | 0.00 | 0.00 | 47 | 1005.3 |
| 20260509171521 | 62 | 192 | 9.0 | 18.0 | 0.00 | 0.00 | 0.00 | 46 | 1005.5 |
| 20260509170105 | 62 | 193 | 1.0 | 13.0 | 0.00 | 0.00 | 0.00 | 44 | 1005.7 |
| 20260509164557 | 61 | 197 | 5.0 | 17.0 | 0.00 | 0.00 | 0.00 | 44 | 1005.8 |
| 20260509163104 | 61 | 178 | 7.0 | 15.0 | 0.00 | 0.00 | 0.00 | 42 | 1006.1 |
| 20260509161556 | 61 | 152 | 2.0 | 13.0 | 0.00 | 0.00 | 0.00 | 43 | 1006.5 |
| 20260509160049 | 60 | 169 | 0.0 | 0.0 | 0.00 | 0.00 | 0.00 | 44 | 1006.9 |
| 20260509154545 | 59 | 194 | 4.0 | 14.0 | 0.00 | 0.00 | 0.00 | 45 | 1007.1 |
| 20260509153044 | 59 | 190 | 4.0 | 16.0 | 0.00 | 0.00 | 0.00 | 43 | 1007.3 |
| 20260509151541 | 58 | 191 | 6.0 | 14.0 | 0.00 | 0.00 | 0.00 | 46 | 1007.5 |
| 20260509150036 | 58 | 183 | 6.0 | 14.0 | 0.00 | 0.00 | 0.00 | 47 | 1007.7 |
| 20260509144533 | 57 | 175 | 5.0 | 17.0 | 0.00 | 0.00 | 0.00 | 48 | 1007.8 |
| 20260509143008 | 56 | 159 | 9.0 | 16.0 | 0.00 | 0.00 | 0.00 | 48 | 1007.9 |
| 20260509141510 | 56 | 169 | 6.0 | 16.0 | 0.00 | 0.00 | 0.00 | 50 | 1008.1 |
| 20260509140002 | 55 | 193 | 12.0 | 17.0 | 0.00 | 0.00 | 0.00 | 47 | 1008.3 |
| 20260509134501 | 55 | 193 | 14.0 | 22.0 | 0.00 | 0.00 | 0.00 | 48 | 1008.5 |
| 20260509133106 | 55 | 157 | 12.0 | 21.0 | 0.00 | 0.00 | 0.00 | 47 | 1008.6 |
| 20260509131557 | 55 | 173 | 6.0 | 11.0 | 0.00 | 0.00 | 0.00 | 47 | 1008.6 |
| 20260509130056 | 54 | 178 | 7.0 | 15.0 | 0.00 | 0.00 | 0.00 | 52 | 1008.6 |
| 20260509124555 | 52 | 157 | 4.0 | 10.0 | 0.00 | 0.00 | 0.00 | 52 | 1008.5 |
| 20260509123044 | 51 | 186 | 8.0 | 14.0 | 0.00 | 0.00 | 0.00 | 51 | 1008.8 |
| 20260509121554 | 50 | 178 | 4.0 | 16.0 | 0.00 | 0.00 | 0.00 | 54 | 1008.8 |
| 20260509120042 | 50 | 181 | 6.0 | 10.0 | 0.00 | 0.00 | 0.00 | 55 | 1009.0 |
| 20260509114551 | 48 | 190 | 4.0 | 11.0 | 0.00 | 0.00 | 0.00 | 57 | 1009.1 |
| 20260509113032 | 47 | 185 | 4.0 | 8.0 | 0.00 | 0.00 | 0.00 | 61 | 1009.0 |
| 20260509111527 | 46 | 189 | 3.0 | 7.0 | 0.00 | 0.00 | 0.00 | 62 | 1009.0 |
| 20260509110023 | 45 | 187 | 2.0 | 9.0 | 0.00 | 0.00 | 0.00 | 64 | 1008.9 |
| 20260509104542 | 44 | 197 | 2.0 | 8.0 | 0.00 | 0.00 | 0.00 | 66 | 1008.8 |
| 20260509103038 | 44 | 190 | 0.0 | 6.0 | 0.00 | 0.00 | 0.00 | 67 | 1008.6 |
| 20260509101536 | 43 | 193 | 0.0 | 8.0 | 0.00 | 0.00 | 0.00 | 68 | 1008.6 |
| 20260509100029 | 42 | 194 | 1.0 | 7.0 | 0.00 | 0.00 | 0.00 | 67 | 1008.6 |
| 20260509094531 | 42 | 188 | 1.0 | 9.0 | 0.00 | 0.00 | 0.00 | 68 | 1008.7 |
| 20260509093026 | 42 | 234 | 0.0 | 2.0 | 0.00 | 0.00 | 0.00 | 67 | 1008.7 |
| 20260509091525 | 42 | 183 | 0.0 | 8.0 | 0.00 | 0.00 | 0.00 | 67 | 1008.8 |
| 20260509090049 | 42 | 186 | 0.0 | 4.0 | 0.00 | 0.00 | 0.00 | 68 | 1008.8 |
| 20260509084527 | 41 | 186 | 0.0 | 7.0 | 0.00 | 0.00 | 0.00 | 67 | 1008.8 |
| 20260509083041 | 41 | 184 | 0.0 | 7.0 | 0.00 | 0.00 | 0.00 | 66 | 1008.9 |
| 20260509081527 | 41 | 187 | 0.0 | 8.0 | 0.00 | 0.00 | 0.00 | 67 | 1009.0 |
| 20260509080018 | 41 | 184 | 1.0 | 7.0 | 0.00 | 0.00 | 0.00 | 66 | 1009.2 |
| 20260509074527 | 41 | 206 | 0.0 | 5.0 | 0.00 | 0.00 | 0.00 | 67 | 1009.2 |
| 20260509073018 | 41 | 188 | 0.0 | 0.0 | 0.00 | 0.00 | 0.00 | 68 | 1009.2 |
| 20260509071513 | 41 | 187 | 0.0 | 0.0 | 0.00 | 0.00 | 0.00 | 67 | 1009.2 |
| 20260509070109 | 41 | 186 | 0.0 | 5.0 | 0.00 | 0.00 | 0.00 | 66 | 1009.2 |
| 20260509064556 | 41 | 183 | 0.0 | 0.0 | 0.00 | 0.00 | 0.00 | 66 | 1009.2 |
| 20260509063114 | 42 | 184 | 0.0 | 0.0 | 0.00 | 0.00 | 0.00 | 65 | 1009.4 |
| 20260509061556 | 42 | 183 | 0.0 | 0.0 | 0.00 | 0.00 | 0.00 | 65 | 1009.6 |
| 20260509060053 | 43 | 184 | 0.0 | 6.0 | 0.00 | 0.00 | 0.00 | 67 | 1009.8 |
| 20260509054548 | 43 | 183 | 0.0 | 6.0 | 0.00 | 0.00 | 0.00 | 65 | 1009.9 |
| 20260509053047 | 43 | 175 | 1.0 | 6.0 | 0.00 | 0.00 | 0.00 | 65 | 1009.9 |
| 20260509051545 | 44 | 178 | 0.0 | 6.0 | 0.00 | 0.00 | 0.00 | 65 | 1009.9 |
| 20260509050051 | 44 | 193 | 0.0 | 7.0 | 0.00 | 0.00 | 0.00 | 63 | 1009.9 |
| 20260509044538 | 44 | 184 | 4.0 | 8.0 | 0.00 | 0.00 | 0.00 | 63 | 1010.0 |
| 20260509043043 | 45 | 190 | 1.0 | 7.0 | 0.00 | 0.00 | 0.00 | 62 | 1010.0 |
| 20260509041525 | 45 | 192 | 0.0 | 6.0 | 0.00 | 0.00 | 0.00 | 63 | 1010.0 |
| 20260509040022 | 45 | 189 | 0.0 | 0.0 | 0.00 | 0.00 | 0.00 | 66 | 1009.9 |
| 20260509034522 | 45 | 189 | 2.0 | 8.0 | 0.00 | 0.00 | 0.00 | 65 | 1009.9 |
| 20260509033018 | 46 | 188 | 0.0 | 0.0 | 0.00 | 0.00 | 0.00 | 66 | 1009.9 |
| 20260509031511 | 46 | 185 | 2.0 | 7.0 | 0.00 | 0.00 | 0.00 | 64 | 1010.0 |
| 20260509030018 | 46 | 192 | 1.0 | 7.0 | 0.00 | 0.00 | 0.00 | 62 | 1010.1 |
| 20260509024510 | 46 | 215 | 0.0 | 8.0 | 0.00 | 0.00 | 0.00 | 64 | 1010.2 |
| 20260509023010 | 45 | 231 | 0.0 | 0.0 | 0.00 | 0.00 | 0.00 | 62 | 1010.1 |
| 20260509021509 | 46 | 221 | 0.0 | 0.0 | 0.00 | 0.00 | 0.00 | 62 | 1010.2 |
| 20260509020008 | 46 | 241 | 0.0 | 0.0 | 0.00 | 0.00 | 0.00 | 63 | 1010.2 |
| 20260509014508 | 46 | 194 | 1.0 | 9.0 | 0.00 | 0.00 | 0.00 | 62 | 1010.2 |
| 20260509013008 | 46 | 234 | 0.0 | 7.0 | 0.00 | 0.00 | 0.00 | 56 | 1009.9 |
| 20260509011508 | 46 | 252 | 0.0 | 7.0 | 0.00 | 0.00 | 0.00 | 54 | 1009.9 |